[[{"header":{"parameterUnit":"m.s-1","parameterCategory":1,"la1":30.2991,"la2":30.254,"lo1":-89.0895,"lo2":-89.0444,"dy":0.0017,"dx":0.0017,"nx":28,"ny":28,"refTime":"2025-03-01T09:00:00:Z","depth":0,"parameterNumber":2,"parameterNumberName":"U-component_of_WINDS"},"data":[0,0,0,0,0,0,0,0,0,0,0,0,0,0,0,0,0,0,0,0,0,0,0,0,0,0,0,0,0,0,0,0,0,0,0,0,0,0,0,0,0,0,0,0,0,0,0,0,0,0,0,0,0,0,0,0,0,0,-0.4914,-0.4915,0,-0.4945,-0.4945,-0.4945,-0.4944,-0.4944,-0.4944,-0.4943,-0.4977,-0.4978,-0.498,0,0,0,0,0,0,0,0,0,0,0,0,0,-0.4859,-0.486,-0.4914,-0.4915,-0.4915,-0.4944,-0.4945,-0.4945,-0.4945,-0.4944,-0.4944,-0.4943,-0.4977,-0.4978,-0.498,0,0,0,0,0,0,0,0,0,0,0,0,0,-0.4885,-0.486,-0.4914,-0.4918,-0.4919,-0.4944,-0.4945,-0.4945,-0.4945,-0.4944,-0.4943,-0.4943,-0.4976,-0.4978,-0.498,-0.5004,0,0,-0.4986,-0.4987,0,0,0,0,0,0,0,0,-0.4884,-0.4887,-0.4917,-0.4918,-0.4919,-0.494,-0.4938,-0.4965,-0.4945,-0.4935,-0.4943,-0.4942,-0.4965,-0.4968,-0.4975,-0.5006,-0.5007,-0.4986,-0.4987,-0.4988,-0.4989,0,0,0,0,0,0,0,-0.4882,-0.4886,-0.4926,-0.4918,-0.4919,-0.4919,-0.4922,-0.4943,-0.4954,-0.4936,-0.4936,-0.4939,-0.4966,-0.4973,-0.4976,-0.5008,-0.4986,-0.4988,-0.4989,-0.499,-0.506,-0.5061,0,0,0,0,0,0,-0.4879,-0.4884,-0.4925,-0.4927,-0.4899,-0.4921,-0.4924,-0.4934,-0.4953,-0.4955,-0.494,-0.4939,-0.497,-0.4974,-0.4977,-0.5008,-0.4988,-0.499,-0.4991,-0.506,-0.506,-0.5061,0,0,0,0,0,0,-0.4878,-0.4883,-0.4924,-0.4906,-0.4911,-0.4922,-0.4933,-0.4935,-0.4943,-0.4956,-0.4958,-0.4946,-0.497,-0.4975,-0.4997,-0.5009,-0.4991,-0.4992,-0.5059,-0.506,-0.5061,-0.5068,0,0,0,0,0,0,-0.4876,-0.4882,-0.4891,-0.4906,-0.4912,-0.4943,-0.4934,-0.4936,-0.4946,-0.4945,-0.4962,-0.4964,-0.497,-0.4995,-0.4999,-0.5011,-0.4994,-0.5058,-0.5059,-0.506,-0.5067,-0.5069,-0.5071,0,0,0,0,0,-0.4874,-0.4893,-0.4892,-0.4897,-0.4924,-0.4944,-0.4948,-0.4953,-0.4946,-0.4956,-0.4964,-0.4964,-0.5006,-0.4997,-0.5002,-0.5015,-0.5057,-0.5059,-0.506,-0.5066,-0.5069,-0.5071,0,0,0,0,0,0,-0.488,-0.4895,-0.4894,-0.4918,-0.4929,-0.4944,-0.4956,-0.4956,-0.497,-0.4969,-0.4976,-0.498,-0.5003,-0.5011,-0.5,-0.5039,-0.5031,-0.5034,-0.5033,-0.5036,-0.5038,-0.5037,-0.4996,0,0,0,0,0,-0.4884,-0.4898,-0.4911,-0.4931,-0.4936,-0.4945,-0.4954,-0.4957,-0.497,-0.4975,-0.4986,-0.4999,-0.5015,-0.5026,-0.5042,-0.5067,-0.5072,-0.5079,-0.5081,-0.5083,-0.5085,-0.51,-0.5103,-0.5066,-0.5066,-0.5066,0,0,-0.4893,-0.4902,-0.4911,-0.4932,-0.4942,-0.4957,-0.4949,-0.4966,-0.4978,-0.4978,-0.5,-0.5008,-0.5023,-0.5048,-0.5059,-0.5055,-0.5096,-0.5085,-0.5086,-0.5088,-0.5102,-0.5105,-0.5108,-0.5068,-0.5067,-0.5067,0,0,-0.4917,-0.4925,-0.4943,-0.4952,-0.4966,-0.4971,-0.4975,-0.4989,-0.4994,-0.5016,-0.5016,-0.5031,-0.5059,-0.507,-0.5079,-0.5105,-0.5106,-0.511,-0.5122,-0.5136,-0.5139,-0.5142,-0.5152,-0.5156,-0.5113,-0.5113,-0.5113,0,-0.4926,-0.4949,-0.4952,-0.4969,-0.4978,-0.4977,-0.4995,-0.5004,-0.5023,-0.503,-0.5025,-0.5059,-0.507,-0.5097,-0.5103,-0.511,-0.5116,-0.5109,-0.5138,-0.5141,-0.5144,-0.5153,-0.5157,-0.5113,-0.5113,-0.5113,-0.5113,0,-0.496,-0.4976,-0.4988,-0.5005,-0.5016,-0.5033,-0.5039,-0.505,-0.5051,-0.5057,-0.508,-0.5091,-0.511,-0.5116,-0.5118,-0.5143,-0.514,-0.5137,-0.5129,-0.5148,-0.5157,-0.5161,-0.5114,-0.5114,-0.5114,-0.5114,0,0,-0.499,-0.5007,-0.5012,-0.502,-0.5034,-0.5047,-0.5064,-0.5081,-0.509,-0.5102,-0.5118,-0.5141,-0.5137,-0.5147,-0.5151,-0.5163,-0.5184,-0.5158,-0.5158,-0.5163,-0.5213,-0.5216,-0.522,-0.5183,-0.5184,-0.5184,-0.5212,0,-0.5017,-0.5046,-0.5049,-0.5076,-0.5091,-0.509,-0.5105,-0.5116,-0.5121,-0.5135,-0.5142,-0.5159,-0.5152,-0.5158,-0.517,-0.5178,-0.5194,-0.5176,-0.5198,-0.5199,-0.5196,-0.5225,-0.5229,-0.5255,-0.5215,-0.5216,-0.5216,0,-0.5052,-0.5064,-0.5092,-0.5104,-0.5111,-0.5124,-0.5139,-0.5152,-0.5165,-0.5168,-0.5179,-0.518,-0.5198,-0.5188,-0.5214,-0.5202,-0.5211,-0.5216,-0.5218,-0.5221,-0.521,-0.5231,-0.5263,-0.5267,-0.5222,-0.5222,-0.5221,0,-0.5072,-0.5096,-0.5116,-0.5122,-0.5136,-0.5146,-0.5152,-0.5164,-0.5174,-0.5187,-0.5193,-0.5209,-0.5218,-0.523,-0.5236,-0.5228,-0.5261,-0.5252,-0.5266,-0.5266,-0.5274,-0.5274,-0.531,-0.5278,-0.5278,-0.5278,-0.5278,0,-0.5102,-0.5119,-0.5125,-0.5137,-0.5157,-0.516,-0.518,-0.5186,-0.5196,-0.521,-0.521,-0.5223,-0.5229,-0.5243,-0.5248,-0.5269,-0.5273,-0.5277,-0.5278,-0.5277,-0.5277,-0.5284,-0.5283,-0.5279,-0.5279,-0.5278,-0.5278,0,-0.5129,-0.5133,-0.5155,-0.5166,-0.5169,-0.5183,-0.5193,-0.5205,-0.521,-0.5228,-0.5232,-0.5241,-0.5257,-0.5264,-0.5285,-0.5287,-0.5312,-0.5311,-0.5308,-0.5309,-0.5322,-0.5321,-0.5365,-0.5372,-0.5335,-0.5335,-0.5335,0,-0.5148,-0.5161,-0.5173,-0.5182,-0.5189,-0.5203,-0.5212,-0.5215,-0.5225,-0.524,-0.5251,-0.5267,-0.5281,-0.5308,-0.5316,-0.5332,-0.5333,-0.5347,-0.5335,-0.5334,-0.5334,-0.5334,-0.5335,-0.5349,-0.535,-0.535,-0.535,0,-0.5182,-0.5183,-0.5196,-0.521,-0.5221,-0.5232,-0.5243,-0.525,-0.5255,-0.5266,-0.5283,-0.5293,-0.5314,-0.533,-0.5346,-0.5354,-0.5353,-0.5353,-0.5358,-0.5358,-0.5356,-0.5358,-0.5315,-0.5353,-0.5353,-0.5353,-0.5352,-0.5352,-0.5207,-0.5218,-0.5228,-0.5243,-0.5251,-0.5261,-0.5273,-0.5278,-0.5292,-0.5309,-0.5309,-0.5328,-0.5339,-0.5361,-0.5369,-0.5383,-0.538,-0.5386,-0.5387,-0.5389,-0.5391,-0.5352,-0.5386,-0.5386,-0.5386,-0.5386,-0.5386,0,-0.5242,-0.5248,-0.5261,-0.5275,-0.5287,-0.5283,-0.5295,-0.5305,-0.532,-0.5331,-0.5343,-0.5363,-0.5378,-0.5387,-0.5403,-0.5413,-0.5414,-0.5418,-0.5418,-0.542,-0.5393,-0.5388,-0.5417,-0.5417,-0.5417,-0.5417,-0.5417,-0.5417,-0.5261,-0.5281,-0.5283,-0.5307,-0.5313,-0.533,-0.5337,-0.5346,-0.5354,-0.5375,-0.5388,-0.5393,-0.5403,-0.542,-0.5434,-0.5436,-0.5443,-0.5448,-0.545,-0.5425,-0.5422,-0.5419,-0.5414,-0.5449,-0.5449,-0.5476,-0.5476,-0.5476]},{"header":{"parameterUnit":"m.s-1","parameterCategory":1,"la1":30.2991,"la2":30.254,"lo1":-89.0895,"lo2":-89.0444,"dy":0.0017,"dx":0.0017,"nx":28,"ny":28,"refTime":"2025-03-01T09:00:00:Z","depth":0,"parameterNumber":3,"parameterNumberName":"V-component_of_WINDS"},"data":[0,0,0,0,0,0,0,0,0,0,0,0,0,0,0,0,0,0,0,0,0,0,0,0,0,0,0,0,0,0,0,0,0,0,0,0,0,0,0,0,0,0,0,0,0,0,0,0,0,0,0,0,0,0,0,0,0,0,-4.9743,-4.9744,0,-4.9826,-4.9827,-4.9828,-4.9784,-4.9782,-4.978,-4.9778,-4.986,-4.9864,-4.9868,0,0,0,0,0,0,0,0,0,0,0,0,0,-4.9546,-4.9549,-4.9743,-4.9744,-4.9745,-4.9826,-4.9827,-4.9828,-4.9785,-4.9782,-4.9779,-4.9777,-4.9858,-4.9863,-4.9869,0,0,0,0,0,0,0,0,0,0,0,0,0,-4.963,-4.9551,-4.9743,-4.9733,-4.9733,-4.9826,-4.9827,-4.9828,-4.9785,-4.9782,-4.9779,-4.9776,-4.9857,-4.9863,-4.9869,-4.9975,0,0,-4.9889,-4.9891,0,0,0,0,0,0,0,0,-4.9625,-4.9637,-4.9734,-4.9734,-4.9734,-4.9791,-4.9787,-4.9877,-4.9786,-4.9766,-4.9778,-4.9774,-4.984,-4.9847,-4.987,-4.9979,-4.9982,-4.9889,-4.9893,-4.9896,-4.9898,0,0,0,0,0,0,0,-4.962,-4.9634,-4.9776,-4.9735,-4.9736,-4.9724,-4.9733,-4.9804,-4.982,-4.9767,-4.9764,-4.9775,-4.9839,-4.9864,-4.9871,-4.9983,-4.9889,-4.9895,-4.9899,-4.9901,-5.0184,-5.0187,0,0,0,0,0,0,-4.9615,-4.9629,-4.9773,-4.9778,-4.9671,-4.9731,-4.974,-4.9776,-4.9819,-4.9823,-4.9777,-4.9772,-4.9855,-4.9864,-4.9874,-5.0002,-4.9896,-4.9902,-4.9905,-5.018,-5.0185,-5.0189,0,0,0,0,0,0,-4.961,-4.9628,-4.977,-4.9703,-4.972,-4.9738,-4.9779,-4.978,-4.9805,-4.9827,-4.9829,-4.98,-4.9852,-4.9865,-4.9951,-5.0004,-4.9905,-4.991,-5.0176,-5.0181,-5.0187,-5.0257,0,0,0,0,0,0,-4.9605,-4.9627,-4.9667,-4.9704,-4.9724,-4.9846,-4.9782,-4.9784,-4.9816,-4.981,-4.9849,-4.9852,-4.9851,-4.9941,-4.9957,-5.0011,-4.9915,-5.0171,-5.0178,-5.0185,-5.025,-5.0264,-5.0276,0,0,0,0,0,-4.9598,-4.9683,-4.967,-4.9687,-4.9775,-4.9849,-4.986,-4.9858,-4.982,-4.9861,-4.9876,-4.9851,-4.9995,-4.995,-4.9968,-5.0024,-5.0168,-5.0176,-5.0184,-5.0244,-5.0261,-5.0276,0,0,0,0,0,0,-4.965,-4.9687,-4.9673,-4.9772,-4.9808,-4.9841,-4.9893,-4.9876,-4.9922,-4.9914,-4.9909,-4.9918,-5.0007,-5.0024,-4.9973,-5.0129,-5.0076,-5.0088,-5.0115,-5.0132,-5.0144,-5.0139,-4.9921,0,0,0,0,0,-4.9674,-4.9731,-4.976,-4.9845,-4.9863,-4.9875,-4.9907,-4.9903,-4.9939,-4.9953,-4.9974,-5.0009,-5.0062,-5.0098,-5.0148,-5.0252,-5.026,-5.0299,-5.0312,-5.0323,-5.0334,-5.039,-5.0409,-5.0216,-5.0216,-5.0216,0,0,-4.9722,-4.9749,-4.9786,-4.9856,-4.9883,-4.9942,-4.9888,-4.9953,-4.9997,-4.9962,-5.0045,-5.0062,-5.01,-5.0196,-5.0239,-5.0213,-5.0389,-5.0333,-5.0342,-5.0347,-5.0401,-5.0419,-5.0435,-5.0221,-5.022,-5.022,0,0,-4.9841,-4.9867,-4.9941,-4.997,-5.0012,-5.0019,-5.0037,-5.0074,-5.0084,-5.0167,-5.0143,-5.0194,-5.0286,-5.0315,-5.0342,-5.0473,-5.0452,-5.0489,-5.0559,-5.0614,-5.0629,-5.0643,-5.0691,-5.0708,-5.05,-5.05,-5.05,0,-4.9896,-4.9985,-4.9981,-5.0049,-5.008,-5.0054,-5.0129,-5.0156,-5.0212,-5.0234,-5.0204,-5.032,-5.0344,-5.0447,-5.0479,-5.0501,-5.0522,-5.0485,-5.0628,-5.0641,-5.0654,-5.0699,-5.0717,-5.0504,-5.0504,-5.0504,-5.0503,0,-5.005,-5.0112,-5.0167,-5.0224,-5.0261,-5.0332,-5.0339,-5.0378,-5.037,-5.0381,-5.0465,-5.0494,-5.055,-5.0574,-5.0566,-5.0675,-5.0658,-5.0628,-5.0574,-5.0676,-5.0719,-5.0736,-5.0511,-5.0509,-5.0508,-5.0507,0,0,-5.0204,-5.0259,-5.0279,-5.0305,-5.035,-5.0397,-5.0467,-5.0523,-5.0556,-5.0596,-5.0654,-5.0733,-5.0706,-5.0737,-5.0732,-5.0781,-5.0884,-5.0745,-5.0746,-5.0771,-5.1007,-5.103,-5.1051,-5.087,-5.0874,-5.0876,-5.1004,0,-5.0326,-5.045,-5.0449,-5.0563,-5.062,-5.0596,-5.0657,-5.0691,-5.0702,-5.0753,-5.0765,-5.0822,-5.0781,-5.08,-5.0847,-5.0862,-5.0932,-5.0852,-5.0924,-5.0927,-5.0917,-5.1073,-5.1097,-5.1217,-5.1021,-5.1024,-5.1026,0,-5.0486,-5.0532,-5.0652,-5.069,-5.0714,-5.0769,-5.0821,-5.0869,-5.0907,-5.0912,-5.0947,-5.0935,-5.1006,-5.095,-5.1047,-5.0993,-5.1022,-5.1034,-5.1038,-5.1046,-5.0983,-5.1085,-5.1255,-5.1273,-5.1052,-5.105,-5.1048,0,-5.0587,-5.068,-5.0764,-5.0786,-5.0832,-5.0871,-5.0892,-5.0927,-5.0961,-5.1006,-5.1028,-5.108,-5.1109,-5.1149,-5.1152,-5.1111,-5.125,-5.1194,-5.1256,-5.1256,-5.1287,-5.1285,-5.1465,-5.1305,-5.1304,-5.1304,-5.1304,0,-5.0725,-5.0799,-5.081,-5.0862,-5.0945,-5.0943,-5.1025,-5.1042,-5.1073,-5.1127,-5.1109,-5.116,-5.116,-5.1212,-5.1214,-5.1294,-5.1307,-5.1313,-5.1313,-5.1316,-5.1315,-5.1335,-5.1327,-5.1309,-5.1308,-5.1307,-5.1306,0,-5.0852,-5.0863,-5.0953,-5.0989,-5.1,-5.106,-5.109,-5.1139,-5.115,-5.1219,-5.1235,-5.1251,-5.1311,-5.1318,-5.1387,-5.1389,-5.1487,-5.1477,-5.1474,-5.1473,-5.1536,-5.153,-5.1735,-5.1762,-5.1584,-5.1585,-5.1587,0,-5.094,-5.0997,-5.104,-5.1076,-5.1099,-5.1156,-5.1192,-5.1192,-5.123,-5.1278,-5.1321,-5.138,-5.1427,-5.1525,-5.1542,-5.1596,-5.1588,-5.1656,-5.1596,-5.1597,-5.159,-5.1587,-5.1593,-5.1668,-5.167,-5.1671,-5.1673,0,-5.1094,-5.1097,-5.1149,-5.1204,-5.1246,-5.1289,-5.1329,-5.1359,-5.1365,-5.1407,-5.147,-5.1507,-5.1579,-5.1638,-5.1691,-5.1711,-5.1693,-5.1692,-5.1709,-5.1713,-5.1709,-5.1713,-5.1507,-5.1687,-5.1685,-5.1684,-5.1684,-5.1683,-5.1205,-5.1255,-5.1294,-5.1352,-5.1383,-5.1421,-5.147,-5.1487,-5.1539,-5.1599,-5.1596,-5.1665,-5.1702,-5.1771,-5.1795,-5.1849,-5.1826,-5.1851,-5.1858,-5.1864,-5.1871,-5.17,-5.1858,-5.1858,-5.1858,-5.1857,-5.1857,0,-5.1359,-5.1383,-5.1437,-5.1495,-5.1541,-5.1522,-5.1565,-5.1605,-5.1667,-5.1703,-5.1751,-5.1823,-5.188,-5.1902,-5.1958,-5.1997,-5.199,-5.2011,-5.2009,-5.2014,-5.1888,-5.1868,-5.2016,-5.2016,-5.2016,-5.2016,-5.2016,-5.2016,-5.1445,-5.1529,-5.1536,-5.1635,-5.1658,-5.1727,-5.1754,-5.1789,-5.1818,-5.19,-5.1948,-5.1963,-5.1994,-5.2052,-5.2104,-5.2108,-5.213,-5.2155,-5.2157,-5.2039,-5.2023,-5.2007,-5.1989,-5.216,-5.216,-5.2279,-5.228,-5.2281]}]]